This is the latest recevied weather packets stored in our database for station/object DL6DJ-15. If no packets are shown the sender has not sent any weather packets the latest 10 day(s).
| Time | Temp. | Humidity | Pressure | Rain* | Wind** | Luminosity | Snow |
|---|---|---|---|---|---|---|---|
| 1788004960 | 27.78° C | 39% | 1018.8 hPa | - | - | - | - |
| 1788004660 | 26.67° C | 38% | 1018.8 hPa | - | - | - | - |
| 1788004359 | 27.22° C | 37% | 1018.8 hPa | - | - | - | - |
| 1788004059 | 28.33° C | 37% | 1018.8 hPa | - | - | - | - |
| 1788003758 | 28.33° C | 36% | 1018.8 hPa | - | - | - | - |
| 1788003458 | 28.33° C | 38% | 1018.8 hPa | - | - | - | - |
| 1788003158 | 27.78° C | 39% | 1018.9 hPa | - | - | - | - |
| 1788002857 | 27.78° C | 37% | 1019 hPa | - | - | - | - |
| 1788002557 | 27.78° C | 36% | 1019 hPa | - | - | - | - |
| 1788002257 | 27.22° C | 40% | 1019.1 hPa | - | - | - | - |
| 1788001956 | 26.67° C | 41% | 1019.1 hPa | - | - | - | - |
| 1788001656 | 26.67° C | 41% | 1019.3 hPa | - | - | - | - |
| 1788001355 | 28.33° C | 38% | 1019.2 hPa | - | - | - | - |
| 1788001061 | 28.89° C | 35% | 1019.3 hPa | - | - | - | - |
| 1788000754 | 30° C | 34% | 1019.4 hPa | - | - | - | - |
| 1788000454 | 29.44° C | 37% | 1019.3 hPa | - | - | - | - |
| 1788000153 | 28.33° C | 39% | 1019.5 hPa | - | - | - | - |
| 1787999853 | 28.89° C | 38% | 1019.5 hPa | - | - | - | - |
| 1787999552 | 28.89° C | 36% | 1019.5 hPa | - | - | - | - |
| 1787999252 | 28.33° C | 37% | 1019.7 hPa | - | - | - | - |
| 1787998952 | 27.78° C | 40% | 1019.7 hPa | - | - | - | - |
| 1787998651 | 28.33° C | 37% | 1019.7 hPa | - | - | - | - |
| 1787998351 | 28.89° C | 38% | 1019.8 hPa | - | - | - | - |
| 1787998050 | 27.22° C | 42% | 1019.8 hPa | - | - | - | - |
| 1787997750 | 27.78° C | 42% | 1019.9 hPa | - | - | - | - |
* Rain since midnight (hover to see other rain measurements)
** Current wind speed in m/s (hover to see current wind gust speed)